CAPE
0 0 2 1 1 3 6 7 4 6 8 9 10 10 6 4 3 2 0 0 1 1 0 0 0 0 0 0 0 0 0 0 0 0 0 0 0 0 0 0 1 3 0 0 0 0 0 0 0 0 0 0 0 0
0 0 2 1 3 5 4 4 6 5 8 7 9 7 8 9 4 5 0 0 0 2 0 0 0 0 0 0 0 0 0 0 0 0 0 0 0 0 0 1 0 38 0 0 0 0 0 0 0 0 0 0 0 0
0 1 3 3 3 3 1 2 3 2 5 8 8 8 9 6 6 9 1 0 0 1 0 0 0 0 0 0 0 0 0 0 0 0 0 0 0 0 0 0 0 16 0 16 0 0 0 0 0 0 0 0 0 8
0 3 3 2 1 2 0 1 0 0 2 2 2 3 1 2 5 10 4 0 0 1 0 0 0 0 0 0 0 0 0 0 0 0 0 0 0 0 0 0 0 0 0 0 0 0 0 0 0 0 0 0 0 63
0 4 4 3 0 2 0 0 0 0 0 0 0 0 3 1 2 4 6 3 0 0 0 0 0 0 0 0 0 0 0 0 0 0 0 0 0 0 0 0 1 0 0 0 0 0 0 0 0 0 0 3 24 60
0 0 0 5 5 2 0 0 0 1 1 0 0 0 0 0 1 2 0 1 1 0 0 0 0 0 0 0 0 0 0 0 0 0 0 0 0 0 0 0 0 0 0 0 0 0 0 0 0 0 8 41 127 214
0 0 0 0 0 0 0 0 0 0 0 0 0 0 2 1 2 0 0 1 0 0 1 0 0 4 0 0 0 0 0 0 0 0 0 0 0 0 0 0 0 0 0 0 0 0 0 0 0 0 9 42 51 20
0 1 0 0 1 0 0 0 0 0 0 0 0 0 0 0 1 0 0 0 0 1 0 0 0 13 0 0 0 0 0 0 0 0 0 0 0 0 0 0 0 0 0 0 0 0 0 0 0 0 0 0 9 1
0 2 0 1 0 0 0 0 0 0 0 0 0 0 0 0 0 0 0 0 0 0 1 21 2 64 0 0 0 0 0 0 0 0 0 0 0 0 0 0 0 0 0 0 0 0 0 0 0 0 0 2 4 1
0 1 1 1 1 0 0 0 0 0 0 0 0 0 15 0 0 0 0 0 0 0 0 0 0 0 0 0 0 0 0 0 0 0 0 0 0 0 0 0 0 0 0 0 0 0 0 0 0 0 0 0 0 0
0 1 1 2 0 0 0 0 0 0 0 0 0 0 0 0 23 23 27 7 1 7 0 0 0 0 0 0 35 3 0 0 0 0 0 0 0 0 0 0 0 0 0 0 0 0 0 0 0 0 0 0 0 0
0 0 1 0 0 0 0 0 0 0 0 0 0 1 1 9 7 19 3 22 19 42 43 14 2 0 0 0 63 90 41 2 9 0 0 0 0 0 0 0 0 0 0 0 0 0 0 0 0 0 0 0 0 0
2 0 0 0 0 0 0 0 0 0 0 0 0 0 3 1 1 4 7 15 19 10 3 0 4 0 0 0 38 93 129 30 0 0 0 0 14 0 0 0 0 0 0 0 0 0 0 0 0 0 0 0 0 0
1 2 1 0 0 0 0 0 0 0 0 0 0 7 0 1 2 8 1 4 3 0 0 0 0 89 0 15 1 64 28 1 0 0 0 0 0 0 0 0 0 0 0 0 0 0 0 0 0 0 0 0 0 0
2 1 0 0 0 0 0 0 0 0 0 0 1 0 0 5 5 2 0 0 0 0 0 0 26 47 0 3 0 4 29 0 0 0 0 0 0 0 0 0 0 0 0 0 0 0 0 0 0 0 0 0 0 0
1 0 0 0 0 0 0 0 0 0 0 0 0 0 0 3 4 0 0 0 0 0 0 4 26 37 51 0 34 6 5 0 0 0 0 0 0 0 0 0 0 0 0 0 0 0 0 0 0 0 0 0 0 0
1 0 0 0 0 0 0 0 0 0 0 0 0 0 0 0 0 0 0 0 0 0 6 18 18 13 6 32 22 10 20 0 0 0 0 0 0 0 0 0 4 28 13 5 0 0 0 0 0 0 0 0 0 0
0 0 0 0 1 1 0 0 0 1 0 0 0 0 0 0 0 0 0 0 0 0 14 0 22 2 22 61 66 16 0 0 0 0 0 0 0 0 0 0 0 2 13 15 18 3 4 13 12 1 0 0 0 0
1 0 0 0 4 1 0 0 0 0 0 0 0 0 0 0 0 0 0 0 11 6 0 0 0 0 0 0 17 3 0 0 0 0 0 0 0 0 0 0 0 8 13 23 8 6 2 0 0 0 0 0 0 0
0 0 0 0 1 0 0 0 0 0 0 0 0 0 0 0 0 0 0 0 15 5 0 0 0 1 0 0 0 1 3 0 0 7 0 0 0 0 0 0 15 10 3 0 0 0 0 0 0 0 0 0 0 0
0 0 0 0 0 0 0 0 0 0 0 0 0 0 0 0 0 0 0 0 0 0 0 0 0 0 0 0 0 22 0 5 28 23 14 15 4 0 0 27 28 0 0 0 0 0 0 0 0 0 0 0 0 0
0 0 0 0 0 0 0 0 0 0 0 0 0 0 0 0 0 0 0 0 0 0 0 0 0 0 0 0 0 18 7 17 21 6 0 0 0 0 0 0 0 3 0 0 0 0 0 0 0 0 0 0 0 0
0 0 0 0 0 0 0 0 0 0 0 0 0 0 0 0 0 0 0 0 0 0 0 0 0 0 0 0 13 41 14 20 8 0 0 0 0 0 0 0 1 0 0 0 0 0 0 0 0 0 0 0 0 0
0 0 1 1 0 0 0 0 0 0 0 0 0 0 0 0 8 16 2 0 0 6 13 7 2 0 0 0 15 51 18 0 0 0 2 13 1 0 1 1 0 0 0 0 0 0 0 0 0 0 1 2 3 2
4 0 0 0 0 0 0 0 0 0 0 0 0 0 0 5 12 0 0 5 24 21 34 19 13 11 0 0 7 21 2 0 0 0 0 0 0 0 0 0 0 0 0 0 0 0 0 0 0 1 1 0 0 0
0 0 0 0 0 0 0 0 0 0 0 0 0 0 19 21 1 0 2 18 8 16 19 25 23 18 8 3 7 3 1 0 0 0 0 0 0 10 12 8 0 15 0 0 0 0 0 0 0 0 0 0 0 0
0 0 0 0 0 0 0 0 0 3 2 1 5 22 11 9 12 35 11 12 4 1 0 0 0 0 6 10 12 6 5 0 0 0 0 0 0 0 8 1 8 9 0 0 0 0 0 0 0 0 0 0 0 0
0 0 0 0 0 0 0 0 0 0 17 19 20 23 18 2 1 0 15 8 9 0 0 0 0 0 0 0 0 0 0 0 0 0 0 0 0 0 0 0 0 0 0 0 0 0 0 0 0 0 0 0 0 0
0 0 0 0 0 0 0 0 0 0 3 0 0 1 12 0 0 8 7 3 0 0 0 0 1 0 0 0 0 0 1 0 0 0 0 0 0 0 0 0 0 0 0 0 0 0 0 0 0 0 0 0 0 0
0 0 0 0 0 0 0 0 0 0 0 0 0 0 0 0 0 0 0 0 0 0 0 0 10 0 0 0 0 0 0 0 0 0 0 0 0 0 0 0 0 0 0 0 0 0 0 0 0 0 0 0 0 0
0 0 0 0 0 0 0 0 0 0 0 0 0 0 0 0 0 0 0 0 0 0 0 0 1 1 0 0 0 2 0 0 0 0 0 0 0 0 0 0 0 0 0 0 0 0 0 0 0 0 0 0 0 0
0 0 0 0 0 0 0 0 0 0 0 0 0 0 0 0 0 0 0 0 0 0 0 0 0 0 0 0 0 0 0 0 3 0 0 0 0 0 0 0 0 0 0 0 0 0 0 0 0 0 0 0 0 0
2 1 0 0 0 0 0 0 0 0 0 0 0 0 0 0 0 0 0 0 0 0 0 0 0 0 0 0 1 13 12 8 17 1 0 0 0 0 0 0 0 0 0 0 0 0 0 0 0 0 0 0 0 0
CIN
0 0 -1 0 -1 -1 -1 -1 -1 -2 -3 -3 -3 -1 -1 -1 -1 -1 0 0 0 0 0 0 0 0 0 0 0 0 0 0 0 0 0 0 0 0 0 0 -115 -50 -22 0 0 0 0 0 0 0 0 0 0 0
0 0 -2 0 -1 0 0 0 -2 -1 -1 -1 -2 -2 -2 -3 -3 -2 0 0 0 0 0 0 0 0 0 0 0 0 0 0 0 0 0 0 0 0 0 -84 0 -114 0 0 0 0 0 0 0 0 0 0 0 0
0 -1 0 -2 0 0 0 0 0 0 -2 -2 -2 0 0 -2 -3 -1 -1 0 0 0 0 0 0 0 0 0 0 0 0 0 0 0 0 0 0 0 0 0 0 -296 0 -155 -2 0 0 0 0 0 0 0 0 -415
-2 -1 0 0 0 0 0 0 0 0 0 0 0 0 -1 -1 -2 -2 0 -3 0 0 0 0 0 0 0 0 0 0 0 0 0 0 0 0 0 0 0 0 0 -35 0 0 0 0 0 0 0 0 0 0 -32 -433
-2 -5 -3 0 0 0 0 0 0 0 0 0 0 0 0 -1 -2 -2 -1 0 0 0 0 0 0 0 0 0 0 0 0 0 0 0 0 0 0 0 0 0 -147 0 0 0 0 0 0 0 0 -46 -28 -244 -298 -273
0 0 0 -4 0 -1 0 0 0 0 0 0 0 0 0 -1 -1 0 0 0 0 0 0 0 0 0 0 0 0 0 0 0 0 0 0 0 0 0 0 0 0 0 0 0 0 0 0 0 0 0 -290 -271 -266 -170
0 0 0 0 0 0 0 0 0 0 0 0 0 0 0 0 0 0 0 0 0 0 0 0 0 -45 0 0 0 0 0 0 0 0 0 0 0 0 0 0 0 0 0 0 0 0 0 0 0 0 -264 -250 -273 -285
0 0 0 0 0 0 0 0 0 0 0 0 0 0 0 0 0 0 0 0 0 0 0 0 0 -63 0 0 0 0 0 0 0 0 0 0 0 0 0 0 0 0 0 0 0 0 0 0 0 0 0 -113 -211 -154
0 0 0 0 0 0 0 0 0 0 0 0 0 0 0 0 0 0 0 0 0 0 -4 -99 -27 -64 0 0 0 0 0 0 0 0 0 0 0 0 0 0 0 0 0 0 0 0 0 0 0 0 0 -143 -136 -148
0 0 0 0 0 0 0 0 0 0 0 0 0 0 -30 0 0 0 -3 0 0 0 0 0 0 0 0 0 -3 0 0 0 0 0 0 0 0 0 0 0 0 0 0 0 0 0 0 0 0 0 0 0 0 0
0 0 0 0 0 0 0 0 0 0 0 0 0 0 0 0 -86 -40 -37 -81 -133 -136 0 0 0 0 0 0 -84 -64 0 0 0 0 0 0 0 0 0 0 0 0 0 0 0 0 0 0 0 0 0 0 0 0
0 0 0 0 0 0 0 0 0 0 0 0 0 0 0 -31 -7 -3 -25 -61 -60 -48 -116 -112 -79 0 0 0 -100 -113 -43 -14 -7 0 0 0 0 0 0 0 0 0 0 0 0 0 0 0 0 0 0 0 0 0
-1 0 0 0 0 0 0 0 0 0 0 0 0 0 -34 -3 -1 0 -2 -25 -43 -80 -13 0 -95 -1 0 0 -126 -68 -20 -31 0 0 0 0 -172 0 0 0 0 0 0 0 0 0 0 0 0 0 0 0 0 0
-3 0 0 0 0 0 0 0 0 0 0 0 -1 -10 0 0 -1 0 0 -22 -70 0 0 0 0 -118 0 -87 -17 -14 -98 -7 0 0 0 0 0 0 0 0 0 0 0 0 0 0 0 0 0 0 0 0 0 0
0 0 0 0 0 0 0 0 0 0 0 0 -3 0 0 -3 -4 -5 -3 0 0 0 0 0 -36 -173 0 -4 0 -21 -41 0 0 0 0 0 0 0 0 0 0 0 0 0 0 0 0 0 0 0 0 0 0 0
0 0 0 0 0 0 0 0 0 0 0 0 0 0 0 -4 -3 0 0 0 0 0 0 -61 -117 -41 -27 0 -13 -42 -71 0 0 0 0 0 0 0 0 0 0 -20 0 0 0 0 0 0 0 0 0 0 0 0
0 0 0 0 0 0 0 0 0 0 0 -2 0 0 0 0 0 0 0 0 0 0 -49 -107 -41 -41 -118 -32 -38 -99 -54 0 0 0 0 0 0 0 0 0 -64 -60 -84 -85 0 0 0 0 0 0 0 0 0 0
0 0 0 0 0 0 0 0 0 -1 -1 0 0 0 0 0 0 0 0 0 0 0 -71 0 -120 -68 -36 -17 -23 -72 -11 0 0 0 0 0 0 0 0 0 0 -73 -63 -55 -57 -66 -52 -47 -49 -30 0 0 0 0
0 0 0 0 0 0 0 0 0 0 0 0 0 0 0 0 0 0 0 0 -70 -31 -16 0 0 0 0 0 -65 -72 0 0 0 0 0 0 0 0 0 0 0 -77 -65 -62 -61 -44 -29 0 0 0 0 0 0 0
0 0 0 0 0 0 0 0 0 0 0 0 0 0 0 0 0 0 0 0 -44 -34 0 -8 0 -38 -5 -11 0 -26 -86 0 0 -63 0 0 0 0 0 0 -76 -78 -20 0 0 0 0 0 0 0 0 0 0 0
0 0 0 0 0 0 0 0 0 0 0 0 0 0 0 0 0 0 0 -1 -17 0 0 -1 -39 0 0 0 -2 -120 0 -122 -71 -54 -47 -41 -89 -1 0 -59 -85 0 0 0 0 0 0 0 0 0 0 0 0 0
0 0 0 0 0 0 0 0 0 0 0 0 0 0 0 0 0 0 0 0 0 0 0 0 0 0 0 0 -14 -95 -89 -82 -82 -105 0 0 0 0 0 0 -23 -67 0 0 0 0 0 0 0 0 0 0 0 0
0 0 -18 0 0 0 0 0 0 0 0 0 0 0 0 0 0 0 0 0 0 0 0 0 0 0 0 0 -76 -71 -88 -53 -55 0 0 0 0 0 0 -57 -138 0 0 0 -7 0 0 0 0 0 0 0 0 0
0 0 -1 -2 0 0 0 0 0 0 0 0 0 0 0 0 -76 -32 -4 0 0 -95 -74 -72 -20 0 0 0 -50 -44 -62 0 0 0 -92 -56 -42 -4 -23 -129 0 0 0 -39 0 0 0 0 0 0 0 0 0 0
-1 -4 0 0 0 0 0 0 0 0 0 0 0 0 0 -15 -16 0 0 -36 -55 -55 -62 -85 -84 -83 -4 0 -79 -68 -70 0 0 0 0 0 0 -4 -7 0 0 0 0 0 0 0 0 0 0 0 0 0 0 0
0 0 0 0 0 0 0 0 0 0 0 0 0 0 -41 -15 -5 0 -8 -31 -35 -35 -38 -45 -52 -55 -73 -69 -62 -51 -25 0 0 0 0 0 0 -66 -62 -82 0 -130 0 0 0 0 0 0 0 0 0 0 0 0
0 0 0 0 0 0 0 0 0 -36 -28 -12 -20 -14 -18 -8 -11 -8 -21 -29 -38 -62 0 0 0 0 -21 -61 -78 -92 -100 0 0 0 0 0 0 0 -102 -7 -70 -71 0 0 0 0 0 0 0 0 0 0 0 0
0 0 0 0 0 0 0 0 0 -3 -16 -24 -28 -9 -5 -10 -3 -2 -32 -48 -45 0 0 0 0 0 0 0 0 -11 0 0 0 0 0 0 0 0 0 0 -19 0 0 0 0 0 0 0 0 0 0 0 0 0
0 0 0 0 0 0 0 0 0 0 -36 0 0 -7 -4 0 0 -22 -25 -27 0 0 0 0 -17 0 0 0 0 0 -81 0 0 0 0 0 0 0 0 0 0 0 0 0 0 0 0 0 0 0 0 0 0 0
0 0 0 0 0 0 0 0 0 0 0 0 0 0 0 0 0 0 0 0 0 0 0 0 -45 0 0 0 0 0 0 0 0 0 0 0 0 0 0 0 0 0 0 0 0 0 0 0 0 0 0 0 0 0
0 0 0 0 0 0 0 0 0 0 0 0 0 0 0 0 0 0 0 0 0 0 0 0 -22 -26 0 0 0 -25 0 0 0 0 0 0 0 0 0 0 0 0 0 0 0 0 0 0 0 0 0 0 0 0
0 0 0 0 0 0 0 0 0 0 0 0 0 0 0 0 0 0 0 0 0 0 0 0 0 0 0 0 0 0 0 0 -114 0 0 0 0 0 0 0 0 0 0 0 0 0 0 0 0 0 0 0 0 0
-4 -2 -2 0 0 0 0 0 0 0 0 0 0 0 0 0 0 0 0 0 0 0 0 0 0 0 0 0 -34 -191 -204 -134 -117 -110 0 0 0 0 0 0 0 0 0 0 0 0 0 0 0 0 0 0 0 0
Wind_Speed
32 33 33 34 34 33 31 30 28 27 26 26 25 25 25 25 26 23 23 16 16 28 34 36 35 35 31 25 26 24 23 19 22 25 28 28 29 28 28 26 27 27 25 27 26 30 36 18 19 19 25 22 19 16
32 33 34 34 34 33 31 29 28 27 26 26 26 27 27 24 22 21 20 20 19 16 30 32 40 43 40 35 29 22 24 24 19 21 23 22 23 23 24 28 22 28 26 27 24 26 26 24 22 23 18 14 12 10
31 32 33 34 34 32 31 30 28 27 26 26 27 26 27 24 23 16 22 24 24 17 34 31 32 31 36 35 34 24 19 18 17 17 18 18 20 19 24 23 22 20 19 23 24 23 26 24 20 14 8 8 8 6
30 30 33 33 33 31 30 30 29 26 24 23 23 25 27 22 19 19 24 14 20 22 27 25 22 30 27 29 30 39 29 22 21 18 18 18 20 19 22 22 23 22 20 19 21 20 19 17 14 11 8 8 7 8
31 32 34 33 32 30 30 29 29 25 22 22 21 21 20 21 17 28 23 3 19 24 25 30 33 25 26 34 33 33 31 25 21 19 19 20 18 19 21 21 23 22 22 23 23 20 18 14 14 11 9 10 9 8
30 32 33 35 34 31 28 29 29 26 22 22 18 15 9 13 21 25 20 9 21 24 23 23 21 20 19 26 29 29 27 23 21 20 20 19 18 18 20 22 21 20 19 20 23 17 18 17 14 15 13 12 11 15
30 30 29 32 35 33 30 30 30 29 25 24 17 10 3 5 10 15 16 14 12 18 21 22 22 19 17 16 21 21 17 21 22 21 22 21 20 19 21 23 18 17 17 18 18 14 17 15 17 17 17 15 14 16
33 31 30 32 34 33 33 34 33 33 34 40 36 33 22 10 11 21 16 18 23 20 20 21 22 19 16 17 19 18 19 20 21 21 22 24 22 22 26 22 21 19 18 19 19 19 17 14 17 19 17 15 16 17
31 30 30 31 30 29 32 34 35 36 42 39 32 20 15 14 14 13 17 14 10 20 19 19 21 20 16 13 13 14 17 22 19 22 22 19 21 23 22 24 24 21 20 20 20 22 19 19 17 15 14 16 19 19
28 28 29 32 32 31 33 34 36 39 41 30 19 17 16 15 21 19 19 17 15 20 21 23 20 22 18 15 14 14 16 17 17 18 18 20 23 20 20 21 23 24 24 25 25 25 23 23 20 18 20 21 22 21
28 29 30 31 32 31 33 32 34 38 25 22 20 16 21 23 16 15 17 17 17 20 19 20 22 24 19 19 16 15 15 16 18 18 19 19 20 19 21 22 23 26 29 29 27 27 24 22 18 16 18 19 17 16
26 28 29 29 28 30 30 27 30 27 22 21 23 23 21 19 18 20 20 17 18 20 19 21 21 23 21 17 16 15 15 15 17 17 17 19 17 17 18 20 23 23 24 23 18 17 16 15 12 10 10 11 12 13
24 25 25 25 28 26 24 23 25 27 27 18 17 19 18 19 20 22 20 18 19 18 18 20 20 20 20 18 16 15 16 17 15 16 17 18 15 16 18 22 23 23 21 19 16 10 7 7 7 7 9 10 11 13
22 23 24 23 21 20 22 21 22 24 18 17 19 20 20 19 21 18 19 20 20 21 21 21 21 18 19 19 18 16 16 14 15 17 19 18 17 18 21 23 23 22 20 16 14 12 10 8 9 12 13 11 12 13
22 20 18 16 20 23 21 16 5 13 15 19 19 21 22 20 23 23 22 22 21 22 21 20 20 17 17 17 17 15 14 14 14 15 16 17 17 19 21 24 25 24 22 19 18 18 17 16 14 15 16 15 17 17
24 23 17 15 23 19 10 11 14 13 16 19 21 21 21 21 20 25 23 20 20 21 20 20 21 17 17 17 18 19 15 15 15 15 14 17 20 21 23 27 24 22 22 21 20 19 18 18 17 14 15 16 18 16
20 14 15 24 31 13 2 12 12 11 16 19 21 22 24 22 21 21 23 23 20 21 24 20 19 20 18 18 19 19 18 16 13 15 17 17 17 20 20 18 14 16 18 18 18 17 17 20 20 16 17 16 16 15
14 15 15 17 29 18 14 12 11 10 13 22 22 21 20 21 21 23 22 22 23 23 22 24 20 20 19 19 18 19 17 17 18 20 20 14 13 13 14 13 18 15 13 14 14 14 12 12 14 17 17 15 15 15
14 6 6 11 14 15 14 12 11 11 5 21 23 23 23 23 24 25 24 22 21 21 21 22 23 23 23 21 19 18 19 18 19 19 18 15 11 16 16 16 15 14 14 15 16 17 18 18 18 17 17 17 19 21
9 1 6 13 11 13 12 11 11 11 20 20 22 23 22 24 23 22 22 20 20 20 22 23 23 20 19 21 21 19 17 16 14 13 12 12 12 12 12 15 16 16 17 16 15 16 18 19 22 22 22 21 21 21
19 15 19 14 13 10 10 11 9 10 21 21 21 21 23 23 24 23 23 20 22 22 22 21 22 22 21 20 19 16 12 11 12 12 12 13 14 14 17 12 13 14 13 14 15 18 21 23 24 23 23 23 23 21
15 18 15 13 14 12 9 9 9 20 20 21 21 19 21 22 23 23 19 22 24 25 24 24 23 22 21 19 17 16 15 13 13 12 14 14 15 15 11 12 11 11 11 12 16 18 21 23 24 22 22 22 21 21
16 14 13 13 13 13 10 13 17 20 19 18 18 18 18 19 18 16 20 22 23 23 23 24 24 22 21 19 16 15 13 10 11 13 14 16 18 14 13 14 12 10 12 15 16 17 19 21 22 23 22 22 21 20
13 14 14 13 9 13 13 17 19 19 19 19 18 18 18 18 17 18 20 20 20 20 20 19 19 21 20 20 21 17 14 14 17 17 15 14 15 15 15 17 17 13 13 14 16 19 21 21 21 22 21 20 22 23
14 12 13 10 13 12 12 19 19 19 19 19 18 19 18 17 17 18 19 19 18 18 18 18 18 20 23 22 21 20 13 13 14 15 13 10 13 16 17 18 17 15 15 16 18 19 20 22 23 24 23 26 25 28
11 11 8 9 10 10 17 19 19 19 19 19 19 18 17 17 17 18 18 17 16 16 16 16 17 17 18 19 19 17 17 17 12 10 12 8 10 13 13 14 16 15 13 16 18 20 22 24 27 29 27 25 25 26
10 9 7 7 20 20 21 21 21 20 20 19 19 18 18 18 17 16 15 15 14 15 17 19 19 19 19 20 20 20 22 16 11 10 13 13 14 16 14 15 14 15 18 18 19 21 23 25 26 28 30 30 29 27
6 12 9 19 25 23 21 21 21 21 21 20 19 19 18 18 18 18 19 18 17 17 17 19 20 20 21 19 18 19 17 14 13 10 11 12 13 11 12 16 19 20 20 20 22 24 25 26 27 27 27 26 26 24
4 7 22 25 25 24 24 24 23 22 19 18 19 19 18 16 19 21 21 21 20 19 19 19 19 18 20 21 22 20 16 6 6 6 5 5 6 11 10 16 18 18 20 21 23 23 23 24 24 24 24 24 23 22
19 18 24 24 26 25 25 25 23 23 21 22 21 23 22 20 20 20 22 21 21 21 20 19 19 19 20 21 19 16 18 12 13 10 14 18 8 10 14 16 17 18 18 19 20 20 19 19 19 19 19 18 18 17
20 24 24 24 24 25 25 24 24 24 24 24 23 25 25 22 20 19 20 20 21 21 21 21 20 20 19 18 12 6 11 23 28 24 16 8 9 14 14 15 17 18 17 17 17 17 18 17 18 18 18 17 16 16
23 25 23 24 25 24 23 24 24 25 25 27 28 26 25 23 23 22 21 20 20 21 21 19 18 16 15 16 18 21 21 22 22 25 15 10 12 13 14 16 18 17 16 16 16 16 16 16 16 16 15 15 14 14
22 23 24 23 24 24 24 23 23 24 26 27 28 28 27 25 24 23 22 22 23 22 21 20 21 24 21 19 20 23 23 23 23 24 22 16 16 16 15 17 18 17 17 16 15 13 13 13 13 13 13 13 13 14
Wind_Direction
353 353 355 351 355 358 1 1 2 2 1 359 356 353 346 343 341 341 322 320 303 273 270 257 252 247 253 260 251 262 255 250 252 246 248 252 255 259 262 264 265 268 270 269 274 274 272 290 295 297 311 306 293 287
354 352 351 350 355 357 360 1 1 0 0 358 353 349 343 349 349 347 335 315 304 302 264 263 251 243 234 241 257 258 251 254 261 257 258 259 260 262 263 261 275 271 274 277 277 281 289 290 291 301 313 325 308 298
355 354 351 351 353 357 360 360 360 359 358 356 349 346 342 347 345 354 322 294 297 306 267 254 248 244 231 229 234 244 248 260 265 276 267 268 262 270 263 269 276 285 289 284 283 286 291 293 297 310 334 348 349 350
355 356 352 352 355 356 359 359 358 359 358 357 353 347 339 347 350 343 305 332 291 281 261 253 267 253 251 241 235 218 246 265 276 278 269 271 267 277 273 276 277 282 288 287 291 289 296 301 304 309 321 342 357 349
350 352 350 352 355 357 357 358 355 357 357 355 353 351 351 349 353 291 230 175 271 260 261 258 271 264 255 235 234 231 240 255 266 270 275 272 281 278 282 280 278 282 283 281 283 285 293 287 298 308 317 324 329 328
349 349 349 349 351 355 358 356 355 355 356 353 353 351 352 359 346 306 301 350 261 248 263 257 271 272 273 245 239 242 245 258 267 274 277 280 286 287 281 279 283 287 290 288 287 291 288 283 292 298 306 311 313 302
346 349 353 351 347 352 355 354 353 353 354 351 350 304 309 17 13 325 297 315 271 248 263 261 255 266 277 265 249 253 262 268 269 273 275 279 284 290 282 277 287 293 298 301 301 296 290 288 285 293 300 307 309 312
339 343 349 349 348 351 352 349 349 348 343 314 295 300 335 18 4 265 281 202 245 262 264 257 248 260 285 256 249 258 259 264 271 277 283 279 280 285 279 286 287 292 298 296 297 297 296 293 292 292 293 296 300 304
339 343 346 347 352 354 352 349 347 345 322 307 315 344 351 348 322 302 288 273 270 259 262 258 247 245 276 266 261 267 273 263 285 275 277 283 276 278 286 288 287 289 287 294 299 295 296 294 295 294 292 296 299 303
340 345 347 345 348 351 350 348 347 342 324 332 349 345 333 331 281 276 257 268 272 254 254 252 255 248 264 269 270 272 277 273 277 280 288 280 276 286 294 295 289 285 286 287 288 288 291 292 294 287 293 300 302 305
340 341 343 345 347 349 348 348 349 344 353 352 345 336 295 280 296 286 269 266 259 255 256 258 251 244 257 254 265 277 275 277 276 281 287 288 286 288 290 293 292 289 286 284 290 290 293 298 294 295 304 309 314 316
341 341 344 346 349 349 351 354 353 356 356 342 293 295 287 279 270 258 252 264 257 248 256 249 247 242 246 260 265 274 274 283 282 291 290 287 291 293 297 300 302 305 305 303 306 301 302 307 311 314 320 327 330 332
343 345 348 351 351 354 359 1 358 351 327 333 313 289 280 276 252 245 247 256 251 257 253 251 244 243 246 251 263 273 275 275 295 293 291 292 298 306 309 307 309 313 318 320 321 330 342 348 353 351 342 339 340 337
346 348 349 352 356 6 7 4 2 353 350 316 278 260 257 260 245 252 257 255 249 245 244 248 242 248 249 246 258 270 277 289 292 291 295 303 307 305 305 309 313 315 318 321 323 327 334 344 334 331 332 339 340 343
349 352 353 0 12 8 8 13 43 35 352 275 265 246 240 253 247 247 257 249 250 245 246 246 243 251 247 253 257 262 277 290 300 305 300 308 322 326 321 311 302 301 304 306 304 302 304 307 319 326 324 326 325 331
348 352 10 14 2 9 17 39 47 51 335 274 254 247 253 260 262 243 246 251 253 242 244 245 235 247 249 254 252 256 275 290 302 315 336 336 329 325 321 306 301 301 298 299 299 301 308 306 313 325 329 328 327 335
355 8 10 353 341 269 195 63 68 66 333 273 254 254 256 266 257 235 235 248 258 243 226 232 239 234 243 248 248 253 269 290 318 317 322 329 333 348 356 354 336 321 307 300 292 295 311 284 286 319 324 329 330 337
1 2 4 3 340 15 34 47 62 63 1 253 254 261 269 257 240 234 241 253 251 244 242 231 239 239 244 248 256 259 271 288 300 297 301 338 351 328 325 340 92 122 178 271 276 340 24 11 346 334 335 339 340 339
352 4 231 234 19 26 29 43 46 42 197 256 253 257 257 245 241 241 247 262 250 250 246 241 236 239 245 254 258 266 281 293 291 298 291 291 101 144 174 234 222 206 213 277 322 341 349 348 344 344 343 339 332 330
351 194 29 8 41 34 35 54 43 164 250 273 268 258 251 244 250 254 250 252 243 245 241 239 238 248 255 258 260 271 289 292 313 332 308 322 350 31 48 338 316 336 349 358 6 2 359 355 345 338 337 336 333 331
342 1 353 12 23 41 46 52 91 87 262 262 260 261 250 248 241 247 241 249 244 243 244 253 255 257 262 255 267 280 294 322 339 300 315 353 354 356 345 14 14 6 19 16 15 359 352 350 347 345 340 337 336 336
355 348 5 12 4 27 52 73 72 251 258 246 255 252 248 242 243 248 251 239 235 233 235 233 236 244 249 260 266 274 277 295 295 324 318 24 9 13 44 35 46 72 53 34 12 3 358 356 356 357 355 351 347 342
352 11 8 9 4 2 48 343 292 241 244 245 251 249 244 244 246 255 239 236 238 241 239 240 243 250 253 258 262 271 286 301 310 302 327 18 17 37 56 43 40 56 43 18 19 18 14 9 5 3 2 3 6 6
3 1 0 6 29 352 356 293 255 245 238 242 249 244 244 246 259 253 242 245 249 247 245 251 254 253 260 260 254 272 293 289 281 299 337 9 16 28 14 354 3 35 41 53 31 21 18 22 30 22 24 34 52 60
358 2 354 13 339 344 344 266 254 251 241 239 248 244 247 254 254 249 246 250 256 252 257 267 269 267 255 256 257 264 303 308 310 315 336 8 19 8 5 9 27 52 56 39 31 41 49 45 44 48 59 81 71 82
3 356 35 37 2 354 268 253 249 244 245 242 237 241 249 248 246 242 250 260 258 261 270 282 284 278 272 270 273 283 283 288 318 331 322 32 61 22 65 59 44 53 83 58 61 53 55 56 68 74 75 72 76 83
4 5 73 71 242 240 241 243 246 247 244 239 239 243 240 233 236 243 243 255 270 273 275 273 271 270 272 273 272 271 268 291 324 312 299 310 159 178 133 74 102 102 89 76 72 78 79 82 85 93 98 106 110 114
59 339 120 240 219 230 241 241 238 237 238 240 241 237 236 233 237 234 232 244 257 269 269 260 259 264 262 262 267 272 282 286 287 304 322 302 286 302 16 62 81 88 90 87 91 98 101 104 103 104 109 110 110 116
346 333 242 217 213 218 222 226 232 235 243 247 241 234 230 231 231 238 238 245 250 252 264 268 275 276 259 252 251 260 271 10 71 58 51 41 328 279 15 64 70 75 81 84 99 104 105 103 105 98 96 100 107 113
179 153 220 216 202 194 209 194 228 235 245 246 248 240 237 247 247 240 234 236 243 245 261 269 265 258 252 250 254 262 256 109 112 93 106 120 70 60 77 74 77 86 83 79 82 79 75 79 77 77 82 86 92 95
226 206 225 220 219 213 215 230 232 239 241 246 248 240 244 256 256 260 259 257 258 264 262 261 244 225 228 249 271 330 271 211 189 205 250 317 60 89 85 85 94 96 88 83 77 71 70 72 75 77 83 86 88 87
211 210 239 236 232 239 239 230 240 243 243 243 242 247 249 258 262 257 260 264 263 267 264 262 260 283 269 253 238 219 216 210 206 190 139 67 81 88 89 97 107 102 91 86 83 80 80 77 78 81 76 77 79 74
216 242 242 246 241 237 237 238 240 243 245 248 248 246 247 255 261 260 266 265 263 264 258 255 239 199 213 229 223 213 207 206 207 189 141 107 103 96 89 101 106 105 105 100 92 78 74 72 68 64 62 64 65 56